Preview of NWS' New Version of Forecast
This preview is not operational and should not be used for support decisions.

Regional Weather Roundup (RWR)

Issued by Philadelphia/Mt Holly (PHI)

                            
000
ASUS41 KPHI 180311
RWRPHI

REGIONAL WEATHER ROUNDUP
NATIONAL WEATHER SERVICE MOUNT HOLLY NJ
1000 PM EST THU JAN 17 2019

NOTE:  "FAIR" INDICATES FEW OR NO CLOUDS BELOW 12,000 FEET WITH NO
SIGNIFICANT WEATHER AND/OR OBSTRUCTIONS TO VISIBILITY.

 * = STATION DOES NOT REPORT PRECIPITATION (E.G. RAIN, SNOW, ETC.) 
        OR FOG.

NJZ015>026-180400-
SOUTHERN NEW JERSEY
  
CITY           SKY/WX    TMP DP  RH WIND       PRES   REMARKS
POMONA         CLOUDY    30  24  78 CALM      30.23F                  
WILDWOOD*      CLOUDY    36  25  64 E5        30.22F WCI  32          
MILLVILLE      CLOUDY    31  22  69 NE3       30.23S                  
WRIGHTSTOWN    FAIR      29  20  70 CALM      30.21S                  
MOUNT HOLLY    CLOUDY    30  21  69 CALM      30.24S                  
TRENTON        CLOUDY    30  20  66 E5        30.23F WCI  25          

$$
NJZ001>014-180400-
NORTHERN NEW JERSEY
  
CITY           SKY/WX    TMP DP  RH WIND       PRES   REMARKS
SUSSEX         FLURRIES  28  16  60 S3        30.22F                  
ANDOVER*         N/A     27  17  66 CALM      30.22F                  
MORRISTOWN     CLOUDY    28  21  74 N3        30.25F                  
NEWARK         CLOUDY    32  18  56 E7        30.25F WCI  26          
TETERBORO      MOCLDY    31  16  54 SE3       30.25F                  
CALDWELL       CLOUDY    29  18  63 CALM      30.25F                  
SOMERVILLE     CLOUDY    30  18  60 CALM      30.23F                  
ALLAIRE*       MOCLDY    30  23  75 E5        30.25F WCI  25          
TOMS RIVER*    CLOUDY    28  23  81 CALM      30.24F                  

$$
PAZ043-044-047-054-055-060>062-066>071-180400-
EASTERN PENNSYLVANIA
  
CITY           SKY/WX    TMP DP  RH WIND       PRES   REMARKS
PHILADELPHIA   FLURRIES  31  21  66 E7        30.24F WCI  24          
NORTH PHILA    CLOUDY    32  19  58 SE3       30.25S                  
BLUE BELL*     CLOUDY    30  21  69 CALM      30.24S                  
DOYLESTOWN     CLOUDY    29  18  63 CALM      30.22S                  
QUAKERTOWN*    CLOUDY    28  18  64 E3        30.21F                  
PERKASIE*      CLOUDY    28  18  64 CALM      30.22S                  
POTTSTOWN      CLOUDY    29  14  53 CALM      30.24S                  
LANCASTER      LGT SNOW  28  25  88 E6        30.21F FOG     WCI  22  
COATESVILLE    FLURRIES  28  19  69 SE6       30.21S WCI  22          
READING        CLOUDY    28  22  78 SE3       30.21F                  
ALLENTOWN      CLOUDY    31  14  49 CALM      30.22F                  
MOUNT POCONO   CLOUDY    20  11  68 SE8       30.11F WCI  10          
HAZLETON       FLURRIES N/A N/A N/A SE5       30.14F                  
LEHIGHTON      CLOUDY    28  18  64 CALM      30.22F                  
WILKES BARRE   LGT SNOW  24  16  71 VRB3      30.16F                  

$$
DEZALL-MDZ008-012-015-019-020-180400-
DELAWARE AND EASTERN MARYLAND
  
CITY           SKY/WX    TMP DP  RH WIND       PRES   REMARKS
WILMINGTON     LGT SNOW  30  24  78 SE6       30.24F WCI  24          
DOVER          FLURRIES  35  27  73 E5        30.21F WCI  31          
GEORGETOWN     CLOUDY    37  27  67 CALM      30.22F                  
EASTON         FLURRIES  35  28  76 E5        30.24F WCI  31          
PATUXENT       LGT RAIN  38  33  82 SE7       30.20  WCI  33          
OCEAN CITY     CLOUDY    39  30  70 SE7       30.21F WCI  34          
WALLOPS ISLAND CLOUDY    41  32  70 E7        30.20F                  
CAMBRIDGE      CLOUDY    36  28  75 CALM      30.21S                  
SALISBURY      CLOUDY    34  30  85 SE3       30.20F                  

$$
PAZ001-021-NYZ056-072-MDZ011-DCZ001-180400-
OTHER NEARBY LOCATIONS
  
CITY           SKY/WX    TMP DP  RH WIND       PRES   REMARKS
HARRISBURG     LGT SNOW  28  25  88 SE7       30.20S FOG     WCI  21  
STATE COLLEGE  CLOUDY    27  23  86 S5        30.10F WCI  21          
WILLIAMSPORT   LGT SNOW  26  21  81 E8        30.16F WCI  18          
BINGHAMTON     LGT SNOW  21  14  74 S8        30.07S WCI  11          
NEW YORK CITY  CLOUDY    31  14  49 MISG      30.26F                  
BALTIMORE      LGT SNOW  31  30  96 E7        30.20F FOG     WCI  24  
WASHINGTON DC  FLURRIES  34  31  88 NE6       30.21F WCI  29          

$$